Wind_Speed
16 21 26 17 20 26 30 29 26 24 18 16 15 12 10 11 13 13 14 14 12 9 8 9 10 10 9 8 6 5 4 4 7
14 17 20 18 19 21 24 27 28 23 19 18 15 12 10 11 12 13 12 13 15 13 11 11 13 12 12 10 9 7 5 5 5
9 13 18 19 20 17 22 21 21 21 18 20 18 14 13 12 12 13 14 15 15 14 16 15 14 13 13 13 12 9 8 6 4
2 11 15 19 21 20 18 22 22 21 22 22 22 21 17 14 14 14 15 17 17 16 16 17 17 15 14 15 16 13 10 8 6
4 2 10 18 21 23 24 22 24 25 25 25 26 24 22 18 16 17 17 18 18 19 18 17 17 18 18 17 18 16 13 12 10
2 1 8 13 18 23 22 24 29 22 26 27 27 28 27 25 22 21 20 18 20 20 20 20 20 18 18 17 20 20 17 16 14
3 3 2 6 16 22 26 26 26 26 26 27 30 30 29 30 27 25 24 22 23 23 23 23 23 22 21 20 19 20 20 18 17
3 5 5 5 7 16 22 27 26 26 27 29 31 31 30 32 30 31 26 27 27 26 26 27 26 26 26 25 23 21 20 20 19
5 6 7 8 8 11 17 23 25 28 29 30 30 26 28 31 33 35 34 33 32 32 31 30 29 30 30 29 28 25 23 23 23
5 5 6 6 7 9 12 16 21 26 29 31 30 29 30 29 34 34 33 33 34 34 34 33 33 32 32 32 32 30 28 27 28
12 11 8 7 7 8 9 11 15 20 25 28 30 32 32 26 23 29 33 35 36 35 35 36 35 34 34 33 33 32 32 31 32
21 18 17 15 13 10 11 13 13 14 17 18 28 34 32 29 24 24 24 30 35 36 37 37 35 34 35 35 33 33 33 34 35
26 27 26 22 21 19 18 15 15 15 17 20 21 29 35 35 29 27 28 25 32 35 38 38 37 35 33 32 31 32 33 35 38
28 29 29 29 27 25 24 22 22 20 17 19 21 24 31 33 35 27 30 31 29 34 38 39 39 37 35 33 29 28 29 33 37
30 35 34 34 33 29 30 29 26 24 25 24 20 23 22 23 31 39 40 35 35 35 37 38 41 39 39 37 34 31 30 30 33
36 35 37 41 43 41 33 33 33 31 28 27 23 25 22 24 21 26 28 35 32 35 35 38 35 34 34 34 35 32 32 32 31
34 38 43 45 46 46 47 43 40 38 36 34 30 25 26 23 22 21 20 26 34 33 30 38 39 36 35 32 32 33 34 34 35
31 34 40 47 50 53 51 50 50 47 43 41 39 36 31 28 28 28 23 22 21 21 26 36 36 38 39 36 34 30 32 33 32
32 30 32 39 47 52 54 52 53 53 52 49 47 44 42 39 37 35 34 30 28 25 19 19 28 38 37 37 35 30 31 34 33
30 32 29 30 35 44 54 56 54 54 55 56 52 49 48 44 42 38 40 43 39 33 31 28 22 31 33 33 34 35 32 33 35
Wind_Direction
206 220 231 228 205 202 200 200 200 202 199 202 207 212 221 220 209 203 208 218 229 236 231 239 235 225 223 214 217 197 177 192 206
201 201 209 222 223 202 199 206 206 210 217 216 205 207 220 230 222 217 217 220 229 240 235 242 247 242 234 228 226 217 202 191 210
204 212 203 207 215 204 213 211 211 216 218 219 215 221 227 236 236 226 224 227 225 230 234 236 246 249 247 239 237 235 224 207 208
115 214 212 216 211 219 212 215 215 222 219 214 222 210 216 227 242 238 227 229 229 226 230 235 239 243 248 249 240 234 229 225 222
113 140 215 212 211 210 223 222 226 228 228 230 225 224 220 219 234 248 241 234 233 233 233 234 236 242 244 244 242 241 239 240 237
279 119 187 216 218 215 212 222 229 226 225 226 228 225 218 219 229 232 247 239 236 236 236 235 233 241 246 242 238 242 242 242 240
275 293 291 227 219 218 216 207 223 225 221 223 222 223 223 221 225 233 233 244 243 235 236 237 237 237 240 243 241 241 244 244 245
314 309 303 279 255 231 221 224 217 226 229 222 223 226 233 229 230 235 236 230 239 241 237 233 234 235 239 241 241 242 246 247 245
279 286 293 287 277 262 245 236 233 229 223 224 226 231 232 233 236 237 235 234 231 236 237 235 234 233 235 238 242 239 240 246 248
269 277 274 281 274 272 269 262 255 248 235 226 231 234 240 241 241 236 241 237 235 239 240 239 237 235 236 236 240 242 240 241 247
260 260 261 255 252 249 260 266 268 267 252 235 229 231 233 238 229 238 240 237 238 241 242 243 242 240 240 241 241 241 240 240 244
255 254 250 249 248 244 240 242 259 272 280 261 244 237 235 228 230 238 243 249 242 238 240 244 245 245 246 247 246 246 246 245 244
257 258 257 247 248 250 244 239 239 238 248 266 258 247 239 236 234 251 251 244 238 236 237 241 243 245 247 248 250 249 247 246 246
261 262 263 266 256 246 255 249 243 243 243 243 253 260 254 251 242 250 251 240 231 230 234 239 241 246 248 249 248 248 252 252 252
258 261 261 266 261 254 248 254 250 245 247 245 246 249 258 259 254 251 255 244 237 235 227 232 238 243 248 252 253 250 248 252 255
260 259 261 261 259 259 254 250 252 248 246 247 247 242 249 258 253 249 255 243 243 236 224 225 233 240 241 246 251 251 250 248 249
269 265 262 259 260 257 256 252 252 253 248 246 246 242 230 237 247 253 251 258 243 254 230 227 228 229 236 237 242 250 254 254 253
288 274 263 259 257 258 258 255 252 251 250 247 244 242 240 236 234 239 237 242 238 247 253 236 231 229 230 234 238 246 250 254 254
304 288 271 260 255 255 254 253 253 250 249 247 246 246 246 247 247 241 237 236 240 239 235 255 238 235 243 238 236 242 247 248 244
313 307 287 277 263 254 252 252 253 252 250 248 245 244 244 244 245 246 246 243 242 241 248 250 257 253 253 252 242 244 251 251 249
Height
3168 3171 3177 3182 3187 3192 3196 3201 3206 3210 3214 3218 3221 3224 3228 3230 3232 3234 3236 3240 3243 3244 3246 3246 3247 3247 3248 3249 3250 3251 3251 3252 3253
3165 3168 3172 3178 3184 3190 3195 3199 3203 3207 3212 3216 3219 3222 3225 3228 3230 3232 3235 3237 3239 3242 3243 3245 3246 3247 3248 3248 3249 3250 3251 3251 3253
3164 3167 3170 3175 3181 3187 3193 3198 3202 3205 3208 3213 3217 3220 3222 3224 3226 3229 3232 3234 3236 3239 3241 3243 3244 3246 3247 3248 3248 3249 3251 3250 3251
3163 3165 3169 3173 3178 3183 3188 3193 3197 3202 3204 3208 3212 3215 3218 3221 3224 3226 3227 3231 3234 3236 3238 3240 3242 3244 3246 3247 3247 3248 3249 3250 3250
3163 3163 3165 3169 3172 3177 3183 3188 3193 3197 3201 3203 3207 3210 3212 3216 3220 3223 3224 3227 3230 3232 3234 3236 3239 3241 3242 3244 3246 3246 3247 3248 3249
3161 3162 3164 3166 3169 3172 3176 3181 3185 3190 3194 3199 3202 3204 3207 3209 3214 3218 3221 3222 3226 3228 3231 3232 3234 3237 3239 3241 3243 3244 3245 3246 3248
3161 3162 3163 3163 3165 3168 3171 3174 3180 3184 3187 3191 3194 3198 3201 3204 3207 3211 3215 3218 3220 3222 3225 3228 3230 3233 3235 3237 3239 3241 3243 3243 3245
3160 3160 3162 3162 3163 3165 3166 3169 3172 3177 3182 3186 3190 3193 3196 3201 3204 3206 3206 3211 3214 3217 3218 3221 3224 3227 3229 3232 3234 3236 3239 3241 3241
3158 3159 3159 3160 3161 3162 3163 3165 3167 3169 3173 3179 3184 3188 3192 3195 3197 3199 3202 3204 3207 3210 3212 3214 3216 3219 3222 3225 3228 3231 3234 3236 3238
3156 3157 3157 3158 3158 3159 3160 3161 3163 3164 3168 3172 3177 3181 3184 3188 3190 3193 3196 3198 3200 3203 3206 3208 3210 3212 3213 3216 3220 3224 3227 3230 3231
3154 3155 3155 3156 3156 3157 3157 3157 3158 3159 3160 3164 3168 3173 3177 3180 3182 3186 3188 3190 3192 3196 3199 3201 3204 3205 3207 3209 3212 3216 3219 3222 3224
3149 3150 3151 3152 3153 3154 3154 3154 3154 3154 3155 3156 3159 3162 3165 3170 3173 3177 3180 3183 3185 3187 3189 3193 3196 3198 3200 3202 3205 3208 3212 3214 3214
3142 3143 3145 3147 3148 3148 3149 3150 3150 3150 3151 3152 3152 3153 3156 3158 3161 3168 3171 3173 3175 3178 3180 3184 3187 3189 3191 3194 3197 3200 3202 3205 3205
3135 3136 3138 3138 3141 3143 3143 3144 3144 3145 3145 3146 3147 3147 3148 3149 3152 3157 3162 3164 3166 3168 3171 3175 3178 3181 3183 3186 3189 3191 3193 3195 3195
3129 3129 3129 3130 3132 3136 3137 3137 3137 3138 3138 3140 3141 3142 3143 3143 3143 3146 3150 3153 3155 3159 3161 3165 3169 3171 3174 3177 3180 3182 3183 3185 3187
3121 3121 3121 3120 3121 3123 3129 3129 3129 3130 3131 3132 3133 3134 3135 3136 3136 3136 3139 3142 3144 3150 3152 3155 3159 3161 3165 3169 3171 3172 3174 3176 3178
3110 3110 3110 3110 3109 3111 3114 3119 3120 3121 3122 3123 3124 3126 3127 3129 3130 3131 3132 3135 3137 3139 3141 3145 3149 3152 3156 3159 3161 3164 3165 3167 3169
3098 3097 3096 3096 3096 3097 3099 3103 3106 3109 3111 3112 3114 3117 3118 3120 3122 3124 3126 3128 3130 3131 3134 3134 3137 3141 3144 3148 3152 3156 3158 3158 3159
3086 3084 3083 3081 3080 3081 3082 3087 3090 3094 3096 3099 3102 3105 3107 3109 3111 3114 3116 3119 3122 3122 3124 3127 3126 3131 3134 3139 3141 3145 3148 3149 3149
3078 3074 3071 3069 3067 3067 3067 3070 3074 3077 3079 3082 3087 3090 3093 3096 3099 3101 3103 3106 3109 3113 3116 3117 3118 3122 3124 3127 3132 3134 3137 3139 3140